DELTA 1 DEB, 10715

Orbit data source: Space-Track

DELTA 1 DEB, 10715 is space debris in LEO originally from a launch on Thu, 29 Jul 1976 UTC launched from the Air Force Western Test Range (AFWTR). Debris objects in space refer to the collection of defunct objects orbiting the Earth. Examples of debris include non-operational satellites, rocket bodies, and fragments generated from explosions, collisions, or faulty payload assembly.

Loading next visibility...
Identifier
10715, 1976-077AL
Orbit
LEO
Country
Flag of USUS
Related business
Manufacturer
Unknown
Mission
Spacecraft
Bus & Motor
Unknown
Mass
Unknown
Launch date (UTC)
1976-07-29 (49 years ago)
Launch vehicle
Unknown
Launch site
Air Force Western Test Range (AFWTR)
Object type
Payload
Rocket body
Debris
Shape & HBR
Unknown shape, 0.1 m
Radar Cross Section
Medium (>0.1 m² and <1 m²)

Expand to show TLE details & history
Last TLE update: 1 day ago

TLE from 1 day ago
0 DELTA 1 DEB
1 10715U 76077AL  26013.33272034 -.00000143  00000-0 -16079-2 0  9992
2 10715 102.5247 151.2973 0434405 114.3510 278.5539 11.63901127104173
Epoch: 2026-01-13T07:59Z
TLE epoch observation values (Epoch: 2026-01-13T07:59:07.037Z)
Latitude
27.26471°
Longitude
-87.84133°
Altitude
1,811.725 km
Speed
6.996 km/s
True Right ascension
09h 39m 01s
True Declination
27° 08' 35"
Sunlit
Object was in full shadow at epoch
Visualization orbit readout
Latitude
Unknown
Longitude
Unknown
Altitude
Unknown
Speed
Unknown
Apparent Right ascension
Unknown
Apparent Declination
Unknown
Sunlit
N/A
Visualization observer readout
Local Sidereal Time
18:28:58
Azimuth
Unknown
Elevation
Unknown
Doppler factor
Unknown
Orbital elements
Apogee altitude
2,201.534 km
Perigee altitude
1,487.157 km
Semi-major axis
8,222.482 km
Eccentricity
0.04344
Inclination
102.5247°
RAAN
151.2973°
Arg. of periapsis
114.351°
True anomaly
273.59748°
Mean anomaly
278.5539°
Eccentric anomaly
276.07894°
Mean motion
2.91098 °/min
Orbital period
123.67 mins
BSTAR
-0.0016079
Loading maneuver chart data...
Computing Atmospheric mass density...
Loading historical data...
Loading historical data...
Loading historical data...
Loading historical data...
Loading historical data...
Loading historical data...
Loading historical data...

Documentation

Showing up to 5 results
|